www.pogodaiklimat.ru

АРХИВ ПОГОДЫ в Beijing

Время (UTC), дата Ветер
(напр.,м/с)
 
Видим.   Явления Облачность Т
(С)
Тd
(С)
f
(%)
Тe
(С)
Тes
(С)
Комфортность P
(гПа)
Po
(гПа)
Тmin
(С)
Tmax
(С)
R
(мм)
S
(см)
15 11.01 СВ 2 7000 м мгла ?/? +1.7 -12.5 34 -1 -1 тепло 1024.1 1024.0
18 11.01 В 2 8000 м н/о -1.3 -12.6 42 -4 -4 по сезону 1023.4 1019.3 +6.7
21 11.01 С 3 17 км ?/? +1.6 -12.6 34 -2 -2 тепло 1022.7 1023.0
00 12.01 С 1 15 км 3/3
[]
-2.2 -12.0 47 -4 -4 тепло 1023.0 1018.9
03 12.01 Ю 2 4900 м мгла 4/4
[]
+3.6 -11.2 33 +2 +4 тепло 1022.8 1023.0
06 12.01 ЮЗ 5 8000 м 4/4
[]
+5.2 -12.3 27 +2 +3 по сезону 1019.2 1015.1 -2.7
09 12.01 З 2 4400 м мгла 6/6
[]
+3.4 -11.7 32 +2 +2 тепло 1018.0 1018.0
12 12.01 Ю 1 3900 м мгла 8/8
[]
-0.1 -10.6 45 -1 -1 по сезону 1018.9 1014.8
15 12.01 С 2 26 км ?/? +3.3 -14.9 25 +2 +2 тепло 1020.8 1021.0
18 12.01 С 3 30 км н/о +0.3 -16.5 27 -3 -3 тепло 1022.3 1018.2 +5.6
21 12.01 В 1 29 км ?/? -3.1 -17.8 31 -4 -4 по сезону 1023.4 1023.0
00 13.01 С 3 30 км ясно -2.0 -18.1 28 -6 -6 по сезону 1025.5 1021.3
03 13.01 С 5 30 км ясно +0.6 -19.2 21 -4 -2 по сезону 1027.1 1027.0
06 13.01 С 5 30 км ясно +2.9 -22.0 14 -1 +1 по сезону 1025.5 1021.4 -3.5
09 13.01 С 2 30 км ясно +2.5 -23.2 13 +1 +1 тепло 1026.2 1026.0
12 13.01 С 3 30 км ясно +0.4 -24.0 14 -3 -3 по сезону 1027.8 1023.6
15 13.01 С 3 30 км ?/? -1.2 -22.5 18 -5 -5 по сезону 1029.7 1030.0
18 13.01 В 1 30 км ?/? -3.9 -21.5 24 -5 -5 по сезону 1031.2 1027.0 +3.5
21 13.01 С 2 24 км ?/? -5.3 -21.4 27 -9 -9 по сезону 1031.7 1032.0
00 14.01 В 2 24 км ясно -6.3 -21.0 30 -10 -10 по сезону 1032.8 1028.6
03 14.01 СВ 3 30 км ясно -0.8 -22.2 18 -4 -1 по сезону 1034.3 1034.0
06 14.01 В 2 30 км ясно +2.4 -24.1 12 +1 +5 по сезону 1032.0 1027.8 -6.4
09 14.01 В 2 30 км ясно +1.1 -22.7 15 -1 -1 по сезону 1033.0 1033.0
12 14.01 ЮВ 2 14 км ясно -1.1 -11.5 45 -4 -4 по сезону 1034.7 1030.5
15 14.01 Ю 2 16 км ?/? -3.2 -8.3 68 -7 -7 по сезону 1036.8 1037.0
18 14.01 Ю 1 12 км н/о -5.1 -8.3 78 -7 -7 по сезону 1037.2 1033.0 +3.0
21 14.01 Ю 2 9000 м ?/? -4.1 -7.9 75 -8 -8 по сезону 1036.4 1036.0
00 15.01 Ю 1 12 км 10/10 1000 м
[]
-4.1 -8.8 70 -6 -6 по сезону 1035.5 1031.3
03 15.01 Ю 3 16 км 9/9 1000 м
[]
-2.1 -9.2 58 -7 -6 по сезону 1034.6 1035.0
06 15.01 ЮЗ 2 12 км 9/9 600 м
[]
-1.1 -9.2 54 -4 -4 по сезону 1030.9 1026.7 -5.1
09 15.01 ЮЗ 1 8000 м 9/9
[]
-1.7 -9.3 56 -3 -3 по сезону 1030.6 1031.0
12 15.01 СВ 2 н/о 9/9
[]
-3.8 -9.0 67 -8 -8 по сезону 1031.6 1027.4
15 15.01 В 2 3700 м мгла ?/? -3.9 -8.4 71 -8 -8 по сезону 1032.1 1032.0
18 15.01 В 2 4000 м мгла ?/? -3.2 -8.1 69 -7 -7 по сезону 1031.7 1027.5 -0.6
21 15.01 В 1 4500 м мгла ?/? -3.6 -8.3 70 -6 -6 по сезону 1031.0 1031.0
00 16.01 В 1 6000 м мгла 9/9 1000 м
[]
-3.2 -7.9 70 -5 -5 по сезону 1032.8 1028.6
03 16.01 СВ 2 6000 м мгла 9/9
[]
-1.6 -7.5 64 -5 -5 по сезону 1033.7 1034.0
06 16.01 В 2 н/о мгла 9/9 600 м
[]
-0.1 -7.6 57 -3 -3 по сезону 1031.1 1026.9 -4.4
09 16.01 В 2 4400 м мгла 9/9 1000 м
[]
-0.4 -7.9 57 -4 -4 по сезону 1031.4 1031.0
12 16.01 В 1 3500 м мгла 10/10 1000 м
[]
-0.8 -6.5 65 -2 -2 по сезону 1032.8 1028.6
15 16.01 ЮВ 1 3400 м мгла ?/? -1.2 -6.0 70 -3 -3 по сезону 1032.6 1033.0
18 16.01 В 1 2800 м мгла н/о -1.6 -5.8 73 -4 -4 по сезону 1031.5 1027.3 +0.2
21 16.01 В 1 2500 м мгла ?/? -1.7 -5.5 75 -4 -4 по сезону 1030.5 1031.0
00 17.01 С 1 2000 м мгла 10/10 1000 м
[]
-1.9 -5.4 77 -4 -4 тепло 1030.9 1026.7
03 17.01 В 2 2500 м мгла 10/10 300 м
[]
-0.5 -5.3 70 -4 -4 по сезону 1031.6 1032.0
06 17.01 З 2 2100 м мгла 9/9
[]
+1.4 -6.6 55 -1 -1 по сезону 1028.9 1024.7 -1.9
09 17.01 Ю 1 2100 м мгла 9/9
[]
+0.8 -6.7 57 -1 -1 по сезону 1029.4 1029.0
12 17.01 З 1 1900 м мгла 8/8
[]
-1.8 -6.9 68 -4 -4 по сезону 1031.5 1027.3
15 17.01 штиль 0 1600 м мгла ?/? -4.2 -7.8 76 -5 -5 по сезону 1033.7 1034.0
18 17.01 В 1 2800 м мгла н/о -4.9 -9.5 70 -7 -7 по сезону 1035.0 1030.8 +2.1
21 17.01 СВ 2 16 км ?/? -4.3 -15.3 42 -8 -8 по сезону 1034.5 1035.0
00 18.01 СВ 2 17 км 3/3
[]
-5.4 -15.7 44 -9 -9 по сезону 1035.0 1030.8
03 18.01 С 3 23 км 9/9
[]
-1.2 -17.0 29 -5 -5 по сезону 1035.3 1035.0
06 18.01 В 2 19 км 9/9
[]
+1.4 -16.5 25 -1 -0 по сезону 1032.3 1028.1 -5.8
09 18.01 Ю 2 12 км 9/9
[]
+0.8 -14.8 30 -2 -2 по сезону 1031.5 1032.0
12 18.01 Ю 1 8000 м 9/9
[]
-0.9 -14.4 35 -2 -2 по сезону 1031.8 1027.6

 

Местоположение метеостанции Beijing (Китай): широта 39.93 долгота 116.28 высота над уровнем моря 55 м.

В архиве по умолчанию представлена погода в Beijing за последнюю неделю. Архивные данные за месяц целиком и за предыдущие месяцы, начиная с января 2011 года, Вы можете получить, выбрав интересующий диапазон дат из раскрывающегося списка и нажав кнопку "Ввод!".

Внимание! Время в таблицах - всемирное. Для получения местного времени необходимо прибавить поправку, которая в Beijing равна 8 ч.

Ветер - указаны скорость ветра в м/с - средняя за 10 мин, порывы в срок и между сроками (в фигурных скобках) и направление, откуда дует ветер: С - северный, СВ - северо-восточный, В - восточный, ЮВ - юго-восточный, Ю - южный, ЮЗ - юго-западный, З - западный, СЗ - северо-западный.
Видимость - горизонтальная дальность видимости в метрах или километрах. При видимости от 1 до 10 км при отсутствии осадков обычно наблюдается дымка, при ухудшении видимости до 1 км и менее - туман. В сухую погоду видимость может ухудшаться дымом, пылью или мглою.
Явления - указаны атмосферные явления, наблюдавшиеся в срок или в последний час перед сроком; фигурными скобками обозначены явления, наблюдавшиеся между сроками (за 1-3 часа до срока); квадратными скобками обозначены град или гололедные отложения с указанием их диаметра в мм.
Облачность - указаны через наклонную черту общая и нижняя облачность в баллах и высота нижней границы облаков в метрах; квадратными скобками обозначены формы облаков: Ci - перистые, Cs - перисто-слоистые, Cc - перисто-кучевые, Ac - высококучевые, As - высокослоистые, Sc - слоисто-кучевые, Ns - слоисто-дождевые, Cu - кучевые, Cb - кучево-дождевые. Подробнее классификацию облаков см. в Атласе облаков (PDF).
T - Температура воздуха - температура, измеренная на высоте 2 м над землей.
Td - Температура точки росы - температура, при понижении до которой содержащийся в воздухе водяной пар достигнет насыщения.
f - Относительная влажность воздуха - влажноcть воздуха, измеренная на высоте 2 м над землей.
Te - Эффективная температура - температура, которую ощущает одетый по сезону человек в тени. Характеристика душности погоды. При расчете учитывается влияние влажности воздуха и скорости ветра на теплоощущения человека.
Tes - Эффективная температура на солнце - температура, которую ощущает человек, с поправкой на солнечный нагрев. Характеристика знойности погоды. Зависит от высоты солнца над горизонтом, облачности и скорости ветра. Ночью, в пасмурную погоду, а также при ветре 12 м/с и более поправка равна нулю.
P - Атмосферное давление - приведенное к уровню моря атмосферное давление.
Po - Атмосферное давление - измеренное на уровне метеостанции атмосферное давление.
Tmin - Минимальная температура - минимум температуры воздуха на высоте 2 м над землей.
Tmax - Максимальная температура - максимум температуры воздуха на высоте 2 м над землей.
R - Количество осадков - Количество выпавших осадков, мм. При наведении курсора мыши на число - период времени, за который выпало указанное количество осадков.
S - Снежный покров - Высота снежного покрова, см. При наведении курсора мыши на число - состояние снежного покрова и степень покрытия местности в баллах.